Regional Weather Roundup
Issued by NWS

Home | Current Version | Previous Version | Graphics & Text | Print | Product List | Glossary On
Versions: 1 2 3 4 5 6 7 8 9 10 11 12 13 14 15 16 17 18 19 20 21 22 23 24 25 26 27 28 29 30 31 32 33 34 35 36 37 38 39 40 41 42 43 44 45 46 47 48 49 50
000
ASUS45 KBOU 280607
RWRCO

WEATHER ROUNDUP FOR COLORADO
NATIONAL WEATHER SERVICE DENVER/BOULDER CO
1100 PM MST FRI FEB 27 2015

NOTE: "FAIR" INDICATES FEW OR NO CLOUDS BELOW 12000 FEET WITH NO
SIGNIFICANT WEATHER AND/OR OBSTRUCTIONS TO VISIBILITY.

COZ001>005-013-030-031-280700-
...NORTHWEST COLORADO...

CITY           SKY/WX    TMP DP  RH WIND       PRES   REMARKS
CRAIG          CLEAR     20  11  68 NE6       29.78S WCI  12
HAYDEN         CLEAR     18   7  62 E13       29.76S WCI   4
MEEKER         CLEAR     15   9  76 E3        29.77S
MOUNT WERNER   NOT AVBL
STEAMBOAT SPGS PTCLDY    13   5  71 CALM      29.78S
WALDEN         PTCLDY     0  -6  78 SE7       29.75S WCI -13
$$

COZ006>008-011-280700-
...WEST CENTRAL VALLEYS...

CITY           SKY/WX    TMP DP  RH WIND       PRES   REMARKS
GRAND JUNCTION PTCLDY    29  25  85 SE12      29.77S WCI  19
MONTROSE       PTCLDY    20  17  88 S5        29.80S WCI  13
EAGLE          FLURRIES  25  21  86 CALM      29.81F
RIFLE          PTCLDY    26  19  74 CALM      29.79R
DELTA          PTCLDY    30  28  91 CALM      29.81S
NUCLA          PTCLDY    28  21  74 E5        29.81R WCI  23
$$

COZ017>023-064>068-280700-
...SOUTHWEST COLORADO...

CITY           SKY/WX    TMP DP  RH WIND       PRES   REMARKS
DURANGO        LGT SNOW  24  23  96 E3        29.79S FOG
CORTEZ         MOCLDY    28  27  96 CALM      29.78S
PAGOSA SPRINGS LGT SNOW  25  24  97 CALM      29.80S
TELLURIDE      CLOUDY    21  19  91 SE3       29.75S
WOLF CREEK PAS LGT SNOW   9   9 100 SW13G22   29.76S VSB 1   WCI  -7
$$

COZ009-010-012-014-032>034-037-058>063-280700-
...CENTRAL COLORADO...

CITY           SKY/WX    TMP DP  RH WIND       PRES   REMARKS
ASPEN          PTCLDY    10   5  80 S8        29.76S WCI  -2
BUENA VISTA    FLURRIES   5   2  86 W3        29.81S
COPPER MTN     PTCLDY    10   3  72 SW9       29.68S WCI  -2
BERTHOUD PASS  FAIR       1  -4  78 W7        29.67F WCI -11
COTTONWOOD PAS CLOUDY    18  12  79 CALM      29.74S
GUNNISON       CLOUDY    16   7  67 CALM      29.80S
KREMMLING      MOCLDY    18  10  73 CALM      29.79S
LEADVILLE      CLOUDY     6   3  87 CALM      29.72S
SALIDA         CLOUDY    10   7  85 E5        29.90S WCI   2
SUNLIGHT       PTCLDY    12   9  85 CALM        N/A
WILKERSON PASS LGT SNOW  10   7  85 SW7       29.73S WCI   0
$$

COZ069>075-280700-
...SAN LUIS VALLEY/SANGRE DE CRISTO MOUNTAINS...

CITY           SKY/WX    TMP DP  RH WIND       PRES   REMARKS
ALAMOSA        CLOUDY    16  12  84 S5        29.80S WCI   9
LA VETA PASS   LGT SNOW  14  10  85 MISG      29.74S
SAGUACHE       CLOUDY    21  18  86 SE3       29.80F
$$

COZ035-036-038>040-280700-
...NORTHERN COLORADO FRONT RANGE...

CITY           SKY/WX    TMP DP  RH WIND       PRES   REMARKS
DENVER INTL AP PTCLDY     5   2  87 S8        29.90F WCI  -8
DMNS CITY PARK   N/A      8   6  91 NE1       29.90F
AURORA         PTCLDY     7   3  84 S5        29.89F WCI  -1
FRONT RANGE AP NOT AVBL
ERIE MUNI ARPT PTCLDY     3   1  88 CALM      29.92F
BOULDER MUN AP PTCLDY     9   5  85 CALM      29.90F
CENTENNIAL     PTCLDY     8   3  80 S6        29.87F WCI  -2
BROOMFIELD     PTCLDY    10   5  79 CALM      29.88F
FORT COLLINS   PTCLDY     9   3  78 CALM      29.92F
LONGMONT       PTCLDY     4   0  82 W3        29.94F
$$

COZ041-046-047-076>085-087-088-280700-
...PIKES PEAK/PALMER DIVIDE AND SOUTHERN FOOTHILLS...

CITY           SKY/WX    TMP DP  RH WIND       PRES   REMARKS
COLO. SPRINGS  LGT SNOW   6   3  87 SE7       29.92F FOG     WCI  -6
A. F. ACADEMY  CLOUDY     6   2  84 S7        29.87F WCI  -6
ELLICOTT       NOT AVBL
FALCON         LGT SNOW   2  -2  85 S3        29.87F
FORT CARSON    LGT SNOW   7   4  89 SE6       29.92F FOG     WCI  -4
LIMON          CLOUDY     5   2  87 S15G23    29.98S FOG     WCI -13
MONUMENT HILL  PTCLDY     1   0  92 S16       29.81F WCI -18
TRINIDAD       MOCLDY    11   5  77 NW9       29.92F WCI  -2
$$

COZ042>045-048>051-090-091-280700-
...NORTHEAST COLORADO...

CITY           SKY/WX    TMP DP  RH WIND       PRES   REMARKS
GREELEY ARPT   PTCLDY     9   0  66 E5        29.93F WCI   0
AKRON          PTCLDY     8   4  83 S13       29.99F WCI  -8
BURLINGTON     CLOUDY    10   5  80 S16       30.09S WCI  -7
WRAY           CLOUDY    13   8  81 S8        30.12F WCI   1
STERLING       PTCLDY    10   5  79 S6        30.03F WCI   1
HOLYOKE        NOT AVBL
FORT MORGAN    PTCLDY     9   3  78 S12       29.99F WCI  -6
$$

COZ086-089-092>099-280700-
...SOUTHEAST COLORADO...

CITY           SKY/WX    TMP DP  RH WIND       PRES   REMARKS
PUEBLO         LGT SNOW  11   8  88 NE8       30.00F FOG     WCI  -1
LA JUNTA       MOCLDY    12   7  80 E10       30.02F WCI  -1
LAMAR          CLOUDY    13   8  81 SE16G23   30.08F WCI  -3
SPRINGFIELD      N/A     11   8  88 S18       30.05F WCI  -7
$$



USA.gov is the U.S. government's official web portal to all federal, state and local government web resources and services.